This is the latest recevied weather packets stored in our database for station/object VE8SKI. If no packets are shown the sender has not sent any weather packets the latest 10 day(s).
| Time | Temp. | Humidity | Pressure | Rain* | Wind** | Luminosity | Snow |
|---|---|---|---|---|---|---|---|
| 1777793820 | -0.56° C | 87% | 1010.6 hPa | 0 mm | 2.24 m/s, 94° | - | - |
| 1777793520 | -0.56° C | 87% | 1010.7 hPa | 0 mm | 2.24 m/s, 66° | - | - |
| 1777793220 | -0.56° C | 87% | 1010.5 hPa | 0 mm | 2.68 m/s, 68° | - | - |
| 1777792918 | -0.56° C | 87% | 1010.4 hPa | 0 mm | 2.68 m/s, 69° | - | - |
| 1777792618 | -0.56° C | 86% | 1010.4 hPa | 0 mm | 2.68 m/s, 136° | - | - |
| 1777792319 | -0.56° C | 87% | 1010.4 hPa | 0 mm | 2.24 m/s, 3° | - | - |
| 1777792019 | -0.56° C | 87% | 1010.3 hPa | 0 mm | 2.68 m/s, 79° | - | - |
| 1777791719 | -0.56° C | 88% | 1010.2 hPa | 0 mm | 2.68 m/s, 89° | - | - |
| 1777791419 | -0.56° C | 88% | 1010.1 hPa | 0 mm | 2.24 m/s, 66° | - | - |
| 1777791117 | -0.56° C | 88% | 1010.1 hPa | 0 mm | 2.68 m/s, 127° | - | - |
| 1777790817 | -0.56° C | 89% | 1010.1 hPa | 0 mm | 3.58 m/s, 98° | - | - |
| 1777790517 | -0.56° C | 90% | 1010.1 hPa | 0 mm | 2.68 m/s, 90° | - | - |
| 1777790217 | -0.56° C | 90% | 1010.1 hPa | 0 mm | 3.13 m/s, 79° | - | - |
| 1777789917 | -0.56° C | 90% | 1010.1 hPa | 0 mm | 1.79 m/s, 96° | - | - |
| 1777789618 | -0.56° C | 90% | 1009.9 hPa | 0 mm | 1.79 m/s, 62° | - | - |
| 1777789315 | -0.56° C | 90% | 1009.9 hPa | 0 mm | 2.24 m/s, 87° | - | - |
| 1777789015 | -0.56° C | 90% | 1009.8 hPa | 0 mm | 3.13 m/s, 86° | - | - |
| 1777788716 | 0° C | 90% | 1009.8 hPa | 0 mm | 2.24 m/s, 44° | - | - |
| 1777788416 | 0° C | 89% | 1009.8 hPa | 0 mm | 2.24 m/s, 44° | - | - |
| 1777788116 | 0° C | 89% | 1009.7 hPa | 0 mm | 3.13 m/s, 76° | - | - |
| 1777787816 | 0° C | 89% | 1009.7 hPa | 0 mm | 3.13 m/s, 68° | - | - |
| 1777787514 | 0° C | 88% | 1009.7 hPa | 0 mm | 2.68 m/s, 45° | - | - |
| 1777787214 | 0° C | 85% | 1009.7 hPa | 0 mm | 3.13 m/s, 104° | - | - |
| 1777786914 | 0° C | 84% | 1009.6 hPa | 0 mm | 2.68 m/s, 97° | - | - |
| 1777786615 | 0.56° C | 84% | 1009.5 hPa | 0 mm | 1.34 m/s, 75° | - | - |
* Rain latest hour (hover to see other rain measurements)
** Current wind speed in m/s (hover to see current wind gust speed)